MET'MAP v2.0
soon released !

Expected late october,
this new version will be
more efficient, smarter,
and hosted on a brand new
server x3 powerfull...
...and still free !


Not compatible ?
Try the mobile version !

LOG IN : | Subscribe | Disclaimer | Who is Orbifly ? |
ICAO code :

TAF - LFKS Solenzara - 14 Aug 2020 01:32 UTC
Data Sources :     NOAA   


- Airport Elevation : 28 ft
- IATA code : SOZ
- No reported NOTAMs.


LFKS - Solenzara

Latest METAR recorded : 2020/08/13 23:00 LFKS 132300Z AUTO 28004KT CAVOK 24/20 Q1013
NO TAF


MET'MAP, your aeronautical weather chart ! - Copyright ORBIFLY December 2007

Programming & Development : Alexandra Zaïnal
Co-Developer : Marc-Olivier Méhu
Technical & hardware support : Manuel Goepfert
Concept & Financing : Baudouin d'Aumeries